Regional Weather Roundup
Issued by NWS

Home | Current Version | Previous Version | Text Only | Print | Product List | Glossary On
Versions: 1 2 3 4 5 6 7 8 9 10 11 12 13 14 15 16 17 18 19 20 21 22 23 24 25 26 27 28 29 30 31 32 33 34 35 36 37 38 39 40 41 42 43 44 45 46 47 48 49 50
000
ASUS43 KBIS 201710
RWRND

NORTH DAKOTA REGIONAL WEATHER ROUNDUP
NATIONAL WEATHER SERVICE BISMARCK ND
1100 AM CST FRI JAN 20 2017

NOTE: "FAIR" INDICATES FEW OR NO CLOUDS BELOW 12,000 FEET WITH NO
SIGNIFICANT WEATHER AND/OR OBSTRUCTIONS TO VISIBILITY.


NDZ001>003-009>011-017-201800-
NORTHWEST NORTH DAKOTA

CITY           SKY/WX    TMP DP  RH WIND       PRES   REMARKS
WILLISTON      FAIR      20  18  92 CALM      29.40R
MINOT          FAIR      22  18  85 SE6       29.39S WCI  14
MINOT AFB      MOSUNNY   18  16  91 SE5       29.39R WCI  11
$$

NDZ018>021-031>035-040>046-201800-
SOUTHWEST NORTH DAKOTA

CITY           SKY/WX    TMP DP  RH WIND       PRES   REMARKS
BISMARCK       CLOUDY    26  24  92 CALM      29.42F FOG
DICKINSON      FAIR      26  23  88 W12       29.34S WCI  16
GARRISON         N/A     14  11  87 SE6       29.40R WCI   5
HETTINGER ARPT CLOUDY    31  26  82 NW12      29.37R
$$

NDZ004>008-012>016-024-026-027-054-201800-
NORTHEAST NORTH DAKOTA

CITY           SKY/WX    TMP DP  RH WIND       PRES   REMARKS
GRAND FORKS    CLOUDY    36  34  92 SE15      29.51S FOG
GRND FRKS AFB  FOG       34  34 100 SE10      29.51S VSB 3/4
DEVILS LAKE    CLOUDY    34  33  96 SE9       29.44F FOG
$$

NDZ022-023-025-028>030-036>039-047>053-201800-
SOUTHEAST NORTH DAKOTA

CITY           SKY/WX    TMP DP  RH WIND       PRES   REMARKS
FARGO          CLOUDY    38  35  89 SE9       29.51F FOG
JAMESTOWN      FOG       33  33 100 SE13      29.43S VSB 1/2
$$




USA.gov is the U.S. government's official web portal to all federal, state and local government web resources and services.